Terminal Aerodrome Forecast
Issued by NWS Columbia, SC

Home | Current Version | Previous Version | Text Only | Print | Product List | Glossary On
Versions: 1 2 3 4 5 6 7 8 9 10 11 12 13 14 15 16 17 18 19 20 21 22 23 24 25 26 27 28 29 30 31 32
000
FTUS42 KCAE 191728
TAFCAE
TAF
KCAE 191728Z 1918/2018 27018G28KT P6SM FEW060
     FM192100 32018G26KT P6SM SKC
     FM200100 01011KT P6SM SKC
     FM201400 04012G17KT P6SM SKC=

USA.gov is the U.S. government's official web portal to all federal, state and local government web resources and services.